Saint Bonnet de Bellac- Haute Vienne - France
Donnes mto: jeudi, 21/06/2012
Date Horaire Temp. E. Hum. E. P.atmo. Pluie Vent Direction Direction Ensoleilleme Solaire P. de rose Temp au vent Rafales
21/06/2012 00:00 20,6 C 85 % 1009,4 hPa 0,0 mm 0,0 km/h (0 Bft) E-SE 112 0 min 0 W/m 18,0 C 20,6 C 0,0 km/h (0 Bft)
21/06/2012 00:10 20,5 C 85 % 1009,4 hPa 0,0 mm 0,0 km/h (0 Bft) E-SE 112 0 min 0 W/m 17,9 C 20,5 C 0,0 km/h (0 Bft)
21/06/2012 00:20 20,4 C 86 % 1009,4 hPa 0,0 mm 0,0 km/h (0 Bft) E-SE 112 0 min 0 W/m 18,0 C 20,4 C 0,0 km/h (0 Bft)
21/06/2012 00:30 20,3 C 86 % 1009,4 hPa 0,0 mm 0,0 km/h (0 Bft) E-SE 112 0 min 0 W/m 17,9 C 20,3 C 0,0 km/h (0 Bft)
21/06/2012 00:40 20,2 C 86 % 1009,2 hPa 0,0 mm 0,4 km/h (0 Bft) E-SE 112 0 min 0 W/m 17,8 C 20,2 C 0,4 km/h (0 Bft)
21/06/2012 00:50 20,2 C 87 % 1009,3 hPa 0,0 mm 0,0 km/h (0 Bft) E-SE 112 0 min 0 W/m 18,0 C 20,2 C 0,0 km/h (0 Bft)
21/06/2012 01:00 20,1 C 87 % 1009,6 hPa 0,0 mm 0,4 km/h (0 Bft) SE 135 0 min 0 W/m 17,9 C 20,1 C 0,4 km/h (0 Bft)
21/06/2012 01:10 20,1 C 88 % 1009,7 hPa 0,0 mm 0,0 km/h (0 Bft) S-SO 202 0 min 0 W/m 18,0 C 20,1 C 0,0 km/h (0 Bft)
21/06/2012 01:20 19,9 C 88 % 1009,8 hPa 0,0 mm 0,0 km/h (0 Bft) S-SO 202 0 min 0 W/m 17,8 C 19,9 C 0,0 km/h (0 Bft)
21/06/2012 01:30 19,9 C 89 % 1009,8 hPa 0,0 mm 0,0 km/h (0 Bft) S-SO 202 0 min 0 W/m 18,0 C 19,9 C 0,0 km/h (0 Bft)
21/06/2012 01:40 19,9 C 89 % 1009,8 hPa 0,1 mm 0,0 km/h (0 Bft) S-SO 202 0 min 0 W/m 18,0 C 19,9 C 0,0 km/h (0 Bft)
21/06/2012 01:50 19,9 C 89 % 1009,7 hPa 0,0 mm 0,0 km/h (0 Bft) S-SO 202 0 min 0 W/m 18,0 C 19,9 C 0,0 km/h (0 Bft)
21/06/2012 02:00 19,8 C 88 % 1010,1 hPa 0,0 mm 2,2 km/h (1 Bft) S 180 0 min 0 W/m 17,8 C 19,8 C 4,0 km/h (1 Bft)
21/06/2012 02:10 19,4 C 87 % 1010,2 hPa 0,0 mm 1,4 km/h (1 Bft) S-SO 202 0 min 0 W/m 17,2 C 19,4 C 4,3 km/h (1 Bft)
21/06/2012 02:20 19,1 C 87 % 1010,3 hPa 0,1 mm 0,0 km/h (0 Bft) SO 225 0 min 0 W/m 16,9 C 19,1 C 0,0 km/h (0 Bft)
21/06/2012 02:30 18,7 C 87 % 1010,3 hPa 0,0 mm 0,0 km/h (0 Bft) O 270 0 min 0 W/m 16,5 C 18,7 C 0,0 km/h (0 Bft)
21/06/2012 02:40 18,3 C 87 % 1010,3 hPa 0,2 mm 0,0 km/h (0 Bft) S-SO 202 0 min 0 W/m 16,1 C 18,3 C 0,0 km/h (0 Bft)
21/06/2012 02:50 18,0 C 88 % 1010,1 hPa 0,1 mm 3,6 km/h (1 Bft) S-SO 202 0 min 0 W/m 16,0 C 18,0 C 3,6 km/h (1 Bft)
21/06/2012 03:02 17,8 C 88 % 1009,6 hPa 0,1 mm 0,0 km/h (0 Bft) S-SO 202 0 min 0 W/m 15,8 C 17,8 C 2,9 km/h (1 Bft)
21/06/2012 03:10 17,5 C 88 % 1009,3 hPa 0,0 mm 0,0 km/h (0 Bft) O-SO 247 0 min 0 W/m 15,5 C 17,5 C 0,0 km/h (0 Bft)
21/06/2012 03:20 17,4 C 88 % 1009,2 hPa 0,0 mm 0,0 km/h (0 Bft) S 180 0 min 0 W/m 15,4 C 17,4 C 3,2 km/h (1 Bft)
21/06/2012 03:30 17,2 C 89 % 1008,6 hPa 0,0 mm 2,9 km/h (1 Bft) E-SE 112 0 min 0 W/m 15,4 C 17,2 C 4,0 km/h (1 Bft)
21/06/2012 03:40 17,1 C 89 % 1008,5 hPa 0,0 mm 0,0 km/h (0 Bft) E-SE 112 0 min 0 W/m 15,3 C 17,1 C 0,0 km/h (0 Bft)
21/06/2012 03:50 17,1 C 89 % 1008,3 hPa 0,0 mm 2,9 km/h (1 Bft) S-SE 157 0 min 0 W/m 15,3 C 17,1 C 4,3 km/h (1 Bft)
21/06/2012 04:00 17,0 C 90 % 1008,5 hPa 0,0 mm 0,0 km/h (0 Bft) SE 135 0 min 0 W/m 15,3 C 17,0 C 0,0 km/h (0 Bft)
21/06/2012 04:10 16,8 C 90 % 1008,9 hPa 0,0 mm 0,0 km/h (0 Bft) SE 135 0 min 0 W/m 15,1 C 16,8 C 0,0 km/h (0 Bft)
21/06/2012 04:20 16,7 C 90 % 1008,9 hPa 0,0 mm 0,0 km/h (0 Bft) SE 135 0 min 0 W/m 15,0 C 16,7 C 0,0 km/h (0 Bft)
21/06/2012 04:30 16,5 C 90 % 1008,9 hPa 0,0 mm 0,0 km/h (0 Bft) SE 135 0 min 0 W/m 14,9 C 16,5 C 0,0 km/h (0 Bft)
21/06/2012 04:40 16,3 C 90 % 1008,9 hPa 0,0 mm 0,0 km/h (0 Bft) SE 135 0 min 0 W/m 14,7 C 16,3 C 0,0 km/h (0 Bft)
21/06/2012 04:50 16,2 C 91 % 1008,7 hPa 0,0 mm 0,0 km/h (0 Bft) SE 135 0 min 0 W/m 14,7 C 16,2 C 0,0 km/h (0 Bft)
21/06/2012 05:00 16,1 C 91 % 1008,6 hPa 0,0 mm 0,0 km/h (0 Bft) SE 135 0 min 0 W/m 14,6 C 16,1 C 0,0 km/h (0 Bft)
21/06/2012 05:10 16,2 C 91 % 1008,6 hPa 0,0 mm 0,0 km/h (0 Bft) O 270 0 min 0 W/m 14,7 C 16,2 C 0,0 km/h (0 Bft)
21/06/2012 05:20 16,2 C 91 % 1008,5 hPa 0,0 mm 0,0 km/h (0 Bft) NO 315 0 min 0 W/m 14,7 C 16,2 C 0,0 km/h (0 Bft)
21/06/2012 05:30 16,3 C 91 % 1008,5 hPa 0,0 mm 0,0 km/h (0 Bft) N-NO 337 0 min 0 W/m 14,8 C 16,3 C 3,2 km/h (1 Bft)
21/06/2012 05:40 16,3 C 91 % 1008,4 hPa 0,0 mm 0,0 km/h (0 Bft) N-NO 337 0 min 0 W/m 14,8 C 16,3 C 0,0 km/h (0 Bft)
21/06/2012 05:50 16,3 C 91 % 1008,6 hPa 0,0 mm 0,0 km/h (0 Bft) N-NO 337 0 min 0 W/m 14,8 C 16,3 C 0,0 km/h (0 Bft)
21/06/2012 06:00 16,3 C 91 % 1008,5 hPa 0,0 mm 0,0 km/h (0 Bft) N-NO 337 0 min 0 W/m 14,8 C 16,3 C 0,0 km/h (0 Bft)
21/06/2012 06:10 16,3 C 91 % 1008,4 hPa 0,0 mm 0,0 km/h (0 Bft) N-NO 337 0 min 0 W/m 14,8 C 16,3 C 0,0 km/h (0 Bft)
21/06/2012 06:20 16,3 C 91 % 1008,2 hPa 0,0 mm 0,0 km/h (0 Bft) N-NO 337 0 min 0 W/m 14,8 C 16,3 C 0,0 km/h (0 Bft)
21/06/2012 06:30 16,3 C 91 % 1008,2 hPa 0,0 mm 0,0 km/h (0 Bft) N-NO 337 0 min 0 W/m 14,8 C 16,3 C 0,0 km/h (0 Bft)
21/06/2012 06:40 16,2 C 92 % 1008,1 hPa 0,0 mm 0,0 km/h (0 Bft) N-NO 337 0 min 0 W/m 14,9 C 16,2 C 0,0 km/h (0 Bft)
21/06/2012 06:50 16,2 C 92 % 1008,0 hPa 0,0 mm 0,0 km/h (0 Bft) N-NO 337 0 min 0 W/m 14,9 C 16,2 C 0,0 km/h (0 Bft)
21/06/2012 07:00 16,3 C 92 % 1008,1 hPa 0,0 mm 0,0 km/h (0 Bft) N-NO 337 0 min 0 W/m 15,0 C 16,3 C 0,0 km/h (0 Bft)
21/06/2012 07:10 16,4 C 92 % 1008,1 hPa 0,0 mm 0,0 km/h (0 Bft) N-NO 337 0 min 0 W/m 15,1 C 16,4 C 0,0 km/h (0 Bft)
21/06/2012 07:20 16,6 C 92 % 1007,9 hPa 0,0 mm 1,4 km/h (1 Bft) E-SE 112 0 min 0 W/m 15,3 C 16,6 C 3,2 km/h (1 Bft)
21/06/2012 07:30 16,9 C 92 % 1007,9 hPa 0,0 mm 3,2 km/h (1 Bft) SE 135 0 min 0 W/m 15,6 C 16,9 C 4,3 km/h (1 Bft)
21/06/2012 07:40 17,2 C 92 % 1007,8 hPa 0,0 mm 3,6 km/h (1 Bft) S-SE 157 0 min 0 W/m 15,9 C 17,2 C 4,3 km/h (1 Bft)
21/06/2012 07:50 17,4 C 92 % 1007,9 hPa 0,0 mm 3,2 km/h (1 Bft) SE 135 0 min 0 W/m 16,1 C 17,4 C 3,2 km/h (1 Bft)
21/06/2012 08:00 17,6 C 92 % 1007,8 hPa 0,0 mm 1,4 km/h (1 Bft) SE 135 0 min 0 W/m 16,3 C 17,6 C 4,3 km/h (1 Bft)
21/06/2012 08:10 17,8 C 92 % 1007,8 hPa 0,0 mm 3,6 km/h (1 Bft) SE 135 0 min 0 W/m 16,5 C 17,8 C 4,3 km/h (1 Bft)
21/06/2012 08:20 18,0 C 92 % 1007,7 hPa 0,0 mm 2,2 km/h (1 Bft) SE 135 0 min 0 W/m 16,7 C 18,0 C 2,2 km/h (1 Bft)
21/06/2012 08:30 18,3 C 92 % 1007,8 hPa 0,0 mm 3,2 km/h (1 Bft) SE 135 0 min 0 W/m 17,0 C 18,3 C 4,0 km/h (1 Bft)
21/06/2012 08:40 18,6 C 92 % 1007,6 hPa 0,0 mm 0,4 km/h (0 Bft) SE 135 0 min 0 W/m 17,3 C 18,6 C 3,2 km/h (1 Bft)
21/06/2012 08:50 19,2 C 92 % 1007,7 hPa 0,0 mm 0,4 km/h (0 Bft) SE 135 0 min 0 W/m 17,9 C 19,2 C 0,4 km/h (0 Bft)
21/06/2012 09:00 19,8 C 93 % 1007,7 hPa 0,0 mm 0,0 km/h (0 Bft) SE 135 0 min 0 W/m 18,6 C 19,8 C 0,0 km/h (0 Bft)
21/06/2012 09:10 20,4 C 92 % 1007,6 hPa 0,0 mm 0,0 km/h (0 Bft) O 270 0 min 0 W/m 19,1 C 20,4 C 0,0 km/h (0 Bft)
21/06/2012 09:20 21,3 C 90 % 1007,7 hPa 0,0 mm 0,4 km/h (0 Bft) S-SO 202 0 min 0 W/m 19,6 C 21,3 C 3,2 km/h (1 Bft)
21/06/2012 09:30 21,9 C 87 % 1007,7 hPa 0,0 mm 3,6 km/h (1 Bft) SE 135 0 min 0 W/m 19,6 C 21,9 C 6,5 km/h (2 Bft)
21/06/2012 09:40 22,6 C 83 % 1007,8 hPa 0,0 mm 4,7 km/h (1 Bft) S-SO 202 0 min 0 W/m 19,6 C 22,6 C 6,1 km/h (2 Bft)
21/06/2012 09:50 23,1 C 81 % 1007,7 hPa 0,0 mm 4,3 km/h (1 Bft) S 180 0 min 0 W/m 19,7 C 23,1 C 7,9 km/h (2 Bft)
21/06/2012 10:00 23,5 C 78 % 1007,7 hPa 0,0 mm 6,5 km/h (2 Bft) S-SO 202 0 min 0 W/m 19,4 C 23,5 C 10,8 km/h (2 Bft)
21/06/2012 10:00 23,5 C 78 % 1007,7 hPa 0,0 mm 6,5 km/h (2 Bft) S-SO 202 0 min 0 W/m 19,4 C 23,5 C 10,8 km/h (2 Bft)
21/06/2012 10:10 23,8 C 76 % 1007,7 hPa 0,0 mm 4,0 km/h (1 Bft) SO 225 0 min 0 W/m 19,3 C 23,8 C 11,2 km/h (2 Bft)
21/06/2012 10:20 23,9 C 75 % 1007,8 hPa 0,0 mm 1,8 km/h (1 Bft) S-SO 202 0 min 0 W/m 19,2 C 23,9 C 6,1 km/h (2 Bft)
21/06/2012 10:30 24,0 C 74 % 1007,7 hPa 0,0 mm 6,8 km/h (2 Bft) O-SO 247 0 min 0 W/m 19,1 C 24,0 C 6,8 km/h (2 Bft)
21/06/2012 10:40 23,9 C 74 % 1007,8 hPa 0,0 mm 5,8 km/h (2 Bft) SO 225 0 min 0 W/m 19,0 C 23,9 C 5,8 km/h (2 Bft)
21/06/2012 10:50 24,1 C 75 % 1007,9 hPa 0,0 mm 6,1 km/h (2 Bft) SO 225 0 min 0 W/m 19,4 C 24,1 C 8,6 km/h (2 Bft)
21/06/2012 11:00 24,6 C 73 % 1008,0 hPa 0,0 mm 6,1 km/h (2 Bft) S-SO 202 0 min 0 W/m 19,4 C 24,6 C 10,1 km/h (2 Bft)
21/06/2012 11:10 25,1 C 72 % 1008,0 hPa 0,0 mm 1,8 km/h (1 Bft) S 180 0 min 0 W/m 19,7 C 25,1 C 2,9 km/h (1 Bft)
21/06/2012 11:20 25,3 C 69 % 1008,1 hPa 0,0 mm 10,8 km/h (2 Bft) SO 225 0 min 0 W/m 19,2 C 25,3 C 15,8 km/h (3 Bft)
21/06/2012 11:30 25,3 C 65 % 1008,1 hPa 0,1 mm 13,3 km/h (3 Bft) O-SO 247 0 min 0 W/m 18,2 C 25,3 C 14,4 km/h (3 Bft)
21/06/2012 11:40 25,1 C 66 % 1008,3 hPa 0,0 mm 7,6 km/h (2 Bft) S 180 0 min 0 W/m 18,3 C 25,1 C 19,1 km/h (3 Bft)
21/06/2012 11:50 25,3 C 65 % 1008,5 hPa 0,0 mm 10,4 km/h (2 Bft) S-SO 202 0 min 0 W/m 18,2 C 25,3 C 14,0 km/h (3 Bft)
21/06/2012 12:00 25,3 C 62 % 1008,6 hPa 0,0 mm 12,2 km/h (2 Bft) SO 225 0 min 0 W/m 17,5 C 25,3 C 14,4 km/h (3 Bft)
21/06/2012 12:10 25,3 C 61 % 1008,7 hPa 0,0 mm 10,4 km/h (2 Bft) S-SO 202 0 min 0 W/m 17,2 C 25,3 C 15,8 km/h (3 Bft)
21/06/2012 12:20 25,5 C 59 % 1008,8 hPa 0,0 mm 11,2 km/h (2 Bft) SO 225 0 min 0 W/m 16,9 C 25,5 C 13,3 km/h (3 Bft)
21/06/2012 12:30 25,5 C 57 % 1009,0 hPa 0,4 mm 13,3 km/h (3 Bft) SO 225 0 min 0 W/m 16,3 C 25,5 C 19,8 km/h (3 Bft)
21/06/2012 12:40 25,4 C 58 % 1009,2 hPa 0,0 mm 10,4 km/h (2 Bft) S-SO 202 0 min 0 W/m 16,5 C 25,4 C 24,1 km/h (4 Bft)
21/06/2012 12:50 25,3 C 57 % 1009,3 hPa 0,0 mm 14,4 km/h (3 Bft) O-SO 247 0 min 0 W/m 16,2 C 25,3 C 15,5 km/h (3 Bft)
21/06/2012 13:00 25,4 C 57 % 1009,3 hPa 0,0 mm 15,5 km/h (3 Bft) O-SO 247 0 min 0 W/m 16,2 C 25,4 C 22,3 km/h (4 Bft)
21/06/2012 13:10 25,4 C 57 % 1009,6 hPa 0,0 mm 11,9 km/h (2 Bft) O-SO 247 0 min 0 W/m 16,2 C 25,4 C 19,8 km/h (3 Bft)
21/06/2012 13:20 25,3 C 60 % 1010,0 hPa 0,0 mm 5,0 km/h (1 Bft) SO 225 0 min 0 W/m 17,0 C 25,3 C 11,2 km/h (2 Bft)
21/06/2012 13:30 24,8 C 59 % 1010,0 hPa 0,0 mm 12,2 km/h (2 Bft) O 270 0 min 0 W/m 16,2 C 24,8 C 16,6 km/h (3 Bft)
21/06/2012 13:40 24,1 C 62 % 1010,3 hPa 0,0 mm 10,1 km/h (2 Bft) O-SO 247 0 min 0 W/m 16,4 C 24,1 C 10,1 km/h (2 Bft)
21/06/2012 13:50 23,4 C 64 % 1010,4 hPa 0,0 mm 9,7 km/h (2 Bft) SO 225 0 min 0 W/m 16,2 C 23,4 C 13,3 km/h (3 Bft)
21/06/2012 14:00 23,4 C 66 % 1010,6 hPa 0,0 mm 7,6 km/h (2 Bft) SO 225 0 min 0 W/m 16,7 C 23,4 C 9,4 km/h (2 Bft)
21/06/2012 14:10 23,8 C 64 % 1010,6 hPa 0,0 mm 13,3 km/h (3 Bft) O 270 0 min 0 W/m 16,6 C 23,8 C 21,2 km/h (4 Bft)
21/06/2012 14:20 23,5 C 65 % 1010,7 hPa 0,0 mm 10,8 km/h (2 Bft) SO 225 0 min 0 W/m 16,5 C 23,5 C 19,4 km/h (3 Bft)
21/06/2012 14:30 23,4 C 68 % 1010,9 hPa 0,0 mm 6,5 km/h (2 Bft) O-SO 247 0 min 0 W/m 17,1 C 23,4 C 10,4 km/h (2 Bft)
21/06/2012 14:40 23,3 C 68 % 1011,1 hPa 0,0 mm 5,0 km/h (1 Bft) S-SO 202 0 min 0 W/m 17,1 C 23,3 C 11,9 km/h (2 Bft)
21/06/2012 14:50 23,1 C 71 % 1011,3 hPa 0,0 mm 5,0 km/h (1 Bft) O 270 0 min 0 W/m 17,5 C 23,1 C 8,6 km/h (2 Bft)
21/06/2012 15:00 23,2 C 70 % 1011,5 hPa 0,0 mm 8,6 km/h (2 Bft) S 180 0 min 0 W/m 17,4 C 23,2 C 8,6 km/h (2 Bft)
21/06/2012 15:10 22,8 C 69 % 1011,6 hPa 0,0 mm 10,4 km/h (2 Bft) O-NO 292 0 min 0 W/m 16,8 C 22,8 C 17,3 km/h (3 Bft)
21/06/2012 15:20 22,8 C 69 % 1011,8 hPa 0,0 mm 9,0 km/h (2 Bft) SO 225 0 min 0 W/m 16,8 C 22,8 C 15,8 km/h (3 Bft)
21/06/2012 15:30 22,9 C 69 % 1011,9 hPa 0,0 mm 6,8 km/h (2 Bft) SO 225 0 min 0 W/m 16,9 C 22,9 C 11,5 km/h (2 Bft)
21/06/2012 15:40 22,9 C 67 % 1012,2 hPa 0,0 mm 11,5 km/h (2 Bft) O-SO 247 0 min 0 W/m 16,4 C 22,9 C 23,8 km/h (4 Bft)
21/06/2012 15:50 22,3 C 69 % 1012,4 hPa 0,0 mm 9,0 km/h (2 Bft) O-NO 292 0 min 0 W/m 16,3 C 22,3 C 24,5 km/h (4 Bft)
21/06/2012 16:00 21,8 C 71 % 1012,7 hPa 0,0 mm 13,3 km/h (3 Bft) O 270 0 min 0 W/m 16,3 C 21,8 C 16,2 km/h (3 Bft)
21/06/2012 16:10 21,8 C 68 % 1013,0 hPa 0,0 mm 5,8 km/h (2 Bft) SO 225 0 min 0 W/m 15,6 C 21,8 C 8,6 km/h (2 Bft)
21/06/2012 16:20 22,0 C 64 % 1013,2 hPa 0,0 mm 8,3 km/h (2 Bft) O-SO 247 0 min 0 W/m 14,9 C 22,0 C 32,4 km/h (5 Bft)
21/06/2012 16:30 21,9 C 61 % 1013,3 hPa 0,0 mm 10,1 km/h (2 Bft) SO 225 0 min 0 W/m 14,0 C 21,9 C 20,9 km/h (4 Bft)
21/06/2012 16:40 21,6 C 61 % 1013,6 hPa 0,0 mm 8,6 km/h (2 Bft) SO 225 0 min 0 W/m 13,7 C 21,6 C 12,2 km/h (2 Bft)
21/06/2012 16:50 21,4 C 60 % 1013,7 hPa 0,0 mm 8,3 km/h (2 Bft) SE 135 0 min 0 W/m 13,3 C 21,4 C 14,0 km/h (3 Bft)
21/06/2012 17:00 21,4 C 59 % 1013,8 hPa 0,0 mm 10,1 km/h (2 Bft) S-SO 202 0 min 0 W/m 13,0 C 21,4 C 13,3 km/h (3 Bft)
21/06/2012 17:10 21,2 C 60 % 1013,8 hPa 0,0 mm 5,8 km/h (2 Bft) O 270 0 min 0 W/m 13,1 C 21,2 C 5,8 km/h (2 Bft)
21/06/2012 17:20 21,2 C 60 % 1014,1 hPa 0,0 mm 3,6 km/h (1 Bft) O 270 0 min 0 W/m 13,1 C 21,2 C 3,6 km/h (1 Bft)
21/06/2012 17:30 21,1 C 57 % 1014,4 hPa 0,0 mm 9,4 km/h (2 Bft) SO 225 0 min 0 W/m 12,2 C 21,1 C 21,6 km/h (4 Bft)
21/06/2012 17:40 20,9 C 57 % 1014,6 hPa 0,0 mm 9,0 km/h (2 Bft) SO 225 0 min 0 W/m 12,1 C 20,9 C 16,6 km/h (3 Bft)
21/06/2012 17:50 20,6 C 57 % 1014,6 hPa 0,0 mm 12,2 km/h (2 Bft) S 180 0 min 0 W/m 11,8 C 20,6 C 12,2 km/h (2 Bft)
21/06/2012 18:00 20,4 C 58 % 1014,7 hPa 0,0 mm 11,5 km/h (2 Bft) O-SO 247 0 min 0 W/m 11,9 C 20,4 C 22,0 km/h (4 Bft)
21/06/2012 18:10 20,2 C 59 % 1014,9 hPa 0,0 mm 13,3 km/h (3 Bft) SO 225 0 min 0 W/m 11,9 C 20,2 C 17,6 km/h (3 Bft)
21/06/2012 18:20 20,1 C 59 % 1014,9 hPa 0,0 mm 6,8 km/h (2 Bft) O-SO 247 0 min 0 W/m 11,8 C 20,1 C 10,4 km/h (2 Bft)
21/06/2012 18:30 20,2 C 58 % 1015,0 hPa 0,0 mm 10,1 km/h (2 Bft) SO 225 0 min 0 W/m 11,7 C 20,2 C 16,9 km/h (3 Bft)
21/06/2012 18:40 20,0 C 59 % 1015,3 hPa 0,0 mm 13,0 km/h (3 Bft) S-SO 202 0 min 0 W/m 11,7 C 20,0 C 21,2 km/h (4 Bft)
21/06/2012 18:50 19,8 C 58 % 1015,4 hPa 0,0 mm 7,2 km/h (2 Bft) O-SO 247 0 min 0 W/m 11,3 C 19,8 C 12,2 km/h (2 Bft)
21/06/2012 19:00 19,9 C 58 % 1015,5 hPa 0,0 mm 9,0 km/h (2 Bft) O-SO 247 0 min 0 W/m 11,4 C 19,9 C 14,0 km/h (3 Bft)
21/06/2012 19:10 19,9 C 55 % 1015,6 hPa 0,0 mm 9,0 km/h (2 Bft) O 270 0 min 0 W/m 10,6 C 19,9 C 18,4 km/h (3 Bft)
21/06/2012 19:20 19,5 C 56 % 1015,7 hPa 0,0 mm 8,6 km/h (2 Bft) O-SO 247 0 min 0 W/m 10,5 C 19,5 C 13,7 km/h (3 Bft)
21/06/2012 19:30 19,3 C 57 % 1016,0 hPa 0,0 mm 6,8 km/h (2 Bft) O 270 0 min 0 W/m 10,6 C 19,3 C 12,2 km/h (2 Bft)
21/06/2012 19:40 19,2 C 58 % 1016,1 hPa 0,0 mm 5,8 km/h (2 Bft) S-SO 202 0 min 0 W/m 10,7 C 19,2 C 8,3 km/h (2 Bft)
21/06/2012 19:50 18,6 C 58 % 1016,2 hPa 0,0 mm 10,8 km/h (2 Bft) S-SO 202 0 min 0 W/m 10,2 C 18,6 C 15,1 km/h (3 Bft)
21/06/2012 20:00 18,3 C 59 % 1016,4 hPa 0,0 mm 5,0 km/h (1 Bft) S-SO 202 0 min 0 W/m 10,1 C 18,3 C 7,6 km/h (2 Bft)
21/06/2012 20:10 17,9 C 61 % 1016,5 hPa 0,0 mm 6,8 km/h (2 Bft) S-SO 202 0 min 0 W/m 10,3 C 17,9 C 13,7 km/h (3 Bft)
21/06/2012 20:20 17,4 C 64 % 1016,6 hPa 0,0 mm 7,9 km/h (2 Bft) O-SO 247 0 min 0 W/m 10,5 C 17,4 C 7,9 km/h (2 Bft)
21/06/2012 20:30 17,1 C 65 % 1016,7 hPa 0,0 mm 11,9 km/h (2 Bft) SO 225 0 min 0 W/m 10,5 C 17,1 C 18,7 km/h (3 Bft)
21/06/2012 20:40 16,8 C 65 % 1016,8 hPa 0,0 mm 6,5 km/h (2 Bft) O-SO 247 0 min 0 W/m 10,2 C 16,8 C 9,4 km/h (2 Bft)
21/06/2012 20:50 16,7 C 65 % 1016,9 hPa 0,0 mm 7,6 km/h (2 Bft) S-SO 202 0 min 0 W/m 10,1 C 16,7 C 13,0 km/h (3 Bft)
21/06/2012 21:00 16,5 C 63 % 1017,2 hPa 0,0 mm 2,9 km/h (1 Bft) S-SO 202 0 min 0 W/m 9,4 C 16,5 C 2,9 km/h (1 Bft)
21/06/2012 21:10 16,3 C 62 % 1017,2 hPa 0,0 mm 3,2 km/h (1 Bft) O-SO 247 0 min 0 W/m 9,0 C 16,3 C 6,5 km/h (2 Bft)
21/06/2012 21:20 15,9 C 62 % 1017,3 hPa 0,0 mm 4,0 km/h (1 Bft) S 180 0 min 0 W/m 8,6 C 15,9 C 7,2 km/h (2 Bft)
21/06/2012 21:30 15,5 C 62 % 1017,3 hPa 0,0 mm 3,6 km/h (1 Bft) S 180 0 min 0 W/m 8,3 C 15,5 C 4,3 km/h (1 Bft)
21/06/2012 21:40 15,3 C 64 % 1017,5 hPa 0,0 mm 8,3 km/h (2 Bft) SO 225 0 min 0 W/m 8,5 C 15,3 C 8,3 km/h (2 Bft)
21/06/2012 21:50 14,9 C 65 % 1017,7 hPa 0,0 mm 3,6 km/h (1 Bft) O 270 0 min 0 W/m 8,4 C 14,9 C 3,6 km/h (1 Bft)
21/06/2012 22:00 14,6 C 67 % 1017,8 hPa 0,0 mm 1,8 km/h (1 Bft) S-SO 202 0 min 0 W/m 8,5 C 14,6 C 4,0 km/h (1 Bft)
21/06/2012 22:10 14,4 C 68 % 1017,9 hPa 0,0 mm 3,2 km/h (1 Bft) SO 225 0 min 0 W/m 8,6 C 14,4 C 3,2 km/h (1 Bft)
21/06/2012 22:20 14,2 C 69 % 1018,2 hPa 0,0 mm 2,9 km/h (1 Bft) SO 225 0 min 0 W/m 8,6 C 14,2 C 4,3 km/h (1 Bft)
21/06/2012 22:30 13,9 C 70 % 1018,3 hPa 0,0 mm 2,5 km/h (1 Bft) O-NO 292 0 min 0 W/m 8,5 C 13,9 C 6,1 km/h (2 Bft)
21/06/2012 22:40 13,8 C 71 % 1018,4 hPa 0,0 mm 2,9 km/h (1 Bft) O-SO 247 0 min 0 W/m 8,6 C 13,8 C 4,3 km/h (1 Bft)
21/06/2012 22:50 13,5 C 72 % 1018,7 hPa 0,0 mm 0,4 km/h (0 Bft) O-SO 247 0 min 0 W/m 8,6 C 13,5 C 3,6 km/h (1 Bft)
21/06/2012 23:00 13,3 C 73 % 1018,8 hPa 0,0 mm 2,5 km/h (1 Bft) S-SO 202 0 min 0 W/m 8,6 C 13,3 C 4,0 km/h (1 Bft)
21/06/2012 23:10 13,1 C 74 % 1018,7 hPa 0,0 mm 1,8 km/h (1 Bft) O-SO 247 0 min 0 W/m 8,6 C 13,1 C 6,1 km/h (2 Bft)
21/06/2012 23:20 12,9 C 76 % 1018,8 hPa 0,0 mm 1,1 km/h (1 Bft) S-SO 202 0 min 0 W/m 8,8 C 12,9 C 3,2 km/h (1 Bft)
21/06/2012 23:30 12,6 C 76 % 1018,8 hPa 0,0 mm 0,7 km/h (0 Bft) SO 225 0 min 0 W/m 8,5 C 12,6 C 4,3 km/h (1 Bft)
21/06/2012 23:40 12,4 C 77 % 1019,0 hPa 0,0 mm 1,8 km/h (1 Bft) S-SO 202 0 min 0 W/m 8,5 C 12,4 C 4,3 km/h (1 Bft)
21/06/2012 23:50 12,2 C 79 % 1019,1 hPa 0,0 mm 2,9 km/h (1 Bft) S 180 0 min 0 W/m 8,7 C 12,2 C 6,5 km/h (2 Bft)
_ Min-Heure 23:50 19:10 09:10 - 09:10 - - - - 21:30 23:50 09:10
Minimum _ 12,2 C 55 % 1007,6 hPa - 0,0 km/h (0 Bft) - - - - 8,3 C 12,2 C 0,0 km/h (0 Bft)
_ Max-Heure 12:30 09:00 23:50 12:30 13:00 - - 23:50 23:50 11:10 12:30 16:20
Maximum _ 25,5 C 93 % 1019,1 hPa 0,4 mm 15,5 km/h
O-SO (3 Bft)
- - 0 min 0 W/m 19,7 C 25,5 C 32,4 km/h
O-SO (5 Bft)
Moyenne _ 19,6 C 75 % 1011,4 hPa #1,1 mm 4,8 km/h (1 Bft) S-SO - #0 min. 0 W/m 14,8 C 19,6 C 7,7 km/h (2 Bft)
Saint Bonnet de Bellac- Haute Vienne - France